Regional Weather Roundup
Issued by NWS Wakefield, VA

Home | Current Version | Previous Version | Graphics & Text | Print | Product List | Glossary On
Versions: 1 2 3 4 5 6 7 8 9 10 11 12 13 14 15 16 17 18 19 20 21 22 23 24 25 26 27 28 29 30 31 32 33 34 35 36 37 38 39 40 41 42 43 44 45 46 47 48 49 50
000
ASUS41 KAKQ 021414
RWRAKQ

REGIONAL WEATHER ROUNDUP
NATIONAL WEATHER SERVICE WAKEFIELD VA
1000 AM EDT WED SEP 02 2015

Note: "fair" indicates few or no clouds below 12,000 feet with no
significant weather and/or obstructions to visibility. * = Denotes
station may not report precipitation (e.g., rain,snow,etc.),
thunder or fog.

VAZ042-051-052>054-056-021500-
NORTHERN VIRGINIA

CITY           SKY/WX    TMP DP  RH WIND       PRES   REMARKS
WASH NATIONAL  CLOUDY    83  71  67 N3        30.05F
DULLES         PTSUNNY   82  67  60 NW6       30.06F
FORT BELVOIR   MOSUNNY   83  68  59 NW6       30.04F
QUANTICO       PTSUNNY   81  70  69 E5        30.05F
FREDERICKSBRG* MOSUNNY   83  71  66 CALM      30.03F
STAFFORD*      PTSUNNY   83  68  60 CALM      30.08F
WARRENTON      MOSUNNY   85  72  65 NW3       30.05F
CULPEPER*      CLOUDY    78  70  76 CALM      30.06F
MANASSAS*      SUNNY     82  70  65 N3        30.05F
LEESBURG*      PTSUNNY   81  72  74 N5        30.07S
WINCHESTER     PTSUNNY   81  66  61 CALM      30.08F
FRONT ROYAL*   FAIR      77  68  73 CALM      30.08S
LURAY*         FAIR      73  68  83 CALM      30.11S
$$

VAZ048-049-060>072-079>083-021500-
CENTRAL AND SOUTH CENTRAL VIRGINIA

CITY           SKY/WX    TMP DP  RH WIND       PRES   REMARKS
RICHMOND       CLOUDY    86  69  56 SW6       30.04F
CHESTERFIELD*  FAIR      82  64  54 W5        30.06F
PETERSBURG*    PTSUNNY   85  74  70 W6        30.06S
HANOVER        MOSUNNY   83  71  67 W5        30.06F
TAPPAHANNOCK*  MOSUNNY   83  69  61 CALM      30.05S
QUINTON*       FAIR      82  73  73 CALM      30.04F
CHARLOTTSVILLE CLOUDY    79  70  74 CALM      30.07F
GORDONSVILLE*  FAIR      80  70  71 CALM      30.06S
ORANGE*        CLOUDY    81  70  69 CALM      30.08S
LOUISA*        CLOUDY    81  72  74 CALM      30.05F
BUMPASS*       FAIR      82  71  68 CALM      30.05F
FARMVILLE*     MOSUNNY   83  67  58 CALM      30.05F
CREWE*         FAIR     N/A N/A N/A CALM      30.05F
FORT PICKETT*  FAIR      82  71  67 CALM      30.06F
CHASE CITY*    FAIR      84  73  70 W3        30.07S
CLARKSVILLE*   FAIR      79  72  78 CALM      30.07S
SOUTH HILL*    SUNNY     80  72  75 CALM      30.12F
LAWRENCEVILLE* FAIR      82  72  69 W3        30.06S
EMPORIA*       CLOUDY    79  72  78 CALM      30.07S
$$

VAZ088>098-021500-
SOUTHEAST VIRGINIA

CITY           SKY/WX    TMP DP  RH WIND       PRES   REMARKS
NORFOLK        SUNNY     84  71  65 W5        30.04F
VIRGINIA BEACH PTSUNNY   88  72  58 CALM      30.03F
NORFOLK NAVAL  PTSUNNY   82  70  66 W6        30.06S
WEST POINT*    SUNNY     85  69  59 W3        30.06S
SALUDA*        FAIR      83  72  69 NW5       30.03F
NEWPORT NEWS   SUNNY     83  69  62 W7        30.04F
LANGLEY AFB    SUNNY     83  71  67 W5        30.03F
FORT EUSTIS    SUNNY     82  73  75 W3        30.03F
WILLIAMSBURG*  SUNNY     88  73  62 CALM      30.05S HX  96
HR EXEC AP*      N/A     82  73  74 NW5       30.06S
FRANKLIN*      SUNNY     83  71  65 CALM      30.05F
WAKEFIELD      MOSUNNY   84  71  65 CALM      30.05F
$$

VAZ020-022-025-037-045-021500-
WEST CENTRAL AND SOUTHWEST VIRGINIA

CITY           SKY/WX    TMP DP  RH WIND       PRES   REMARKS
STAUNTON*      PTSUNNY   76  71  84 CALM      30.14S
WAYNESBORO*    FAIR      74  69  85 CALM      30.14S
HOT SPRINGS VA SUNNY     70  65  84 NW6       30.26S
LYNCHBURG      SUNNY     83  67  58 CALM      30.11S
DANVILLE       SUNNY     83  68  60 NW3       30.09F
SOUTH BOSTON*  FAIR      82  70  66 CALM      30.07F
MARTINSVILLE   SUNNY     84  67  56 N5        30.14F
ROANOKE        MOSUNNY   80  67  64 VRB5      30.15S
BLACKSBURG     SUNNY     73  68  84 CALM      30.23S
DUBLIN*        CLOUDY    76  69  79 CALM      30.21F
MARION*        SUNNY     76  66  72 W5        30.25S
HILLSVILLE*    SUNNY     71  66  85 CALM      30.22F
RICHLANDS*     FAIR      73  32  22 CALM      30.24S
WISE*          SUNNY     77  63  61 NE3       30.25S
ABINGDON*      SUNNY     76  66  71 CALM      30.21S
$$

MDZ021>025-VAZ099-100-021500-
SOUTHERN MARYLAND AND THE DELMARVA PENINSULA

CITY           SKY/WX    TMP DP  RH WIND       PRES   REMARKS
PATUXENT RIVER CLOUDY    82  71  69 NW6       30.03F
BAY BRIDGE APT   N/A     79  72  78 NW3       30.03F
LEONARDTOWN    NOT AVBL
DOVER          PTSUNNY   76  76 100 N5        30.02F
GEORGETOWN     MOSUNNY   82  70  66 VRB3      30.04S
EASTON         PTSUNNY   82  75  78 NW3       30.07F
CAMBRIDGE      MOSUNNY   81  72  74 CALM      30.02F
SALISBURY      MOSUNNY   80  74  81 VRB3      30.03F
OCEAN CITY     MOSUNNY   82  72  71 VRB3      30.03F
WALLOPS ISLAND MOSUNNY   84  74  71 W8        30.03F
ACCOMACK*      MOSUNNY   81  32  17 W7        30.03F
$$

NCZ012>017-030>032-021500-
NORTH CENTRAL AND EASTERN NORTH CAROLINA

CITY           SKY/WX    TMP DP  RH WIND       PRES   REMARKS
ROANOKE RAPIDS FAIR      81  72  74 SW3       30.06S
RALEIGH        PTSUNNY   82  71  69 CALM      30.08F
ELIZABETH CITY SUNNY     82  73  74 VRB5      30.05F
AHOSKIE*       SUNNY     81  71  72 CALM      30.06S
EDENTON*       SUNNY     81  71  72 CALM      30.06S
CURRITUCK*     SUNNY     81  71  71 CALM      30.05F
KILL DEVIL HLS SUNNY     84  74  72 N3        30.04S
MANTEO         SUNNY     81  74  79 N6        30.06S
CAPE HATTERAS  SUNNY     82  73  74 VRB6      30.05F
TARBORO*       FAIR      83  72  68 CALM      30.07S
GOLDSBORO      SUNNY     82  73  73 VRB1      30.06F
WASHINGTON     SUNNY     82  73  73 CALM      30.06F
GREENVILLE     SUNNY     82  72  69 CALM      30.07F
NEW BERN       SUNNY     84  73  69 NW3       30.07F
WILMINGTON     SUNNY     84  74  71 N6        30.06F
$$

VAZ048-021500-
ELSEWHERE

CITY           SKY/WX    TMP DP  RH WIND       PRES   REMARKS
HARRISBURG PA  MOSUNNY   79  65  62 NW8       30.05S
BALTIMORE      CLOUDY    81  66  60 CALM      30.04F
ANNAPOLIS      PTSUNNY   80  75  84 NW3       30.03F HAZE
ANDREWS AFB    PTSUNNY   82  70  65 N2        30.04F
PHILADELPHIA   PTSUNNY   79  71  76 SE5       30.03F HAZE
HENDERSON NC   MOSUNNY   81  68  66 CALM      30.08F
GREENSBORO     PTSUNNY   83  67  58 CALM      30.11S
ROCKY MOUNT    SUNNY     83  72  69 VRB3      30.07S
$$

VAZ100-021500-
MARINE

STATION/POSITION TIME  TEMP    WIND        PRES    WAVE   SWELL
                       AIR SEA DIR/SP/G            HT/PER HT/PER
                 (UTC) (F)     (DEG/KT/KT) (MB)    (FT/S) (FT/S)
BRANDYWINE LGT   1300   76 76  360/  3/  4 1017.2F
CAPE MAY NJ      1300   78 80   20/  2/  3 1016.6F
LEWES DE         1300   76 76  290/  1/  2 1016.8F
15NM E FENWICK I 1350   78 78  260/  4/  4 1016.8F   1/14   2/14
OCEAN-CITY-INLET 1300   78 77   CALM  /  1 1016.2F
THOMAS POINT MD  1300   78 79  340/  2     1017.8
GOOSES REEF MD   1400   80 80   10/  6/  6 1018.0F
COVE POINT MD    1300   77     340/  7/  8 1017.9R
SOLOMONS ISLAND  1300      80                N/A
BISHOPS HEAD MD  1300   79 80  290/  6/  7 1016.3R
PINEY POINT MD   1305          330/  6/  8   N/A
POTOMAC MD       1400   80 80  310/  8/ 10 1015.8F   1
CAMBRIDGE MD     1300   77 81   70/  3/  4 1016.3R
LEWISETTA VA     1300   79 80  270/  4/  6 1016.7F
RAPPAHANNOCK LGT 1300          250/  6/  7 1017.8F
STINGRAY PT      1400   80 80  290/  6/  8 1017.4F
YORK RVR RNG VA  1300   79     280/  8/  9 1016.8F
YORKTOWN VA      1300   78 80  270/  3/  5 1017.1F
JAMESTOWN VA     1400   79 81  300/  4/  4   N/A
DOMINION TERM VA 1300   77     300/  6/  7 1017.4F
KIPTOPEKE VA     1300      79  290/  7/  8   N/A
CHES BAY BRIDGE  1300   78 79  240/  5/  6 1017.0F
CAPE HENRY VA    1300   78     260/  5/  7   N/A
CHESAPEAKE LGHT  1300   80     290/  4/  5 1018.2F
WILLOUBY STN VA  1300   77     280/  7/  8 1018.3F
CAPE HENRY BUOY  1328      80                N/A     2/ 9
1ST LANDING BUOY 1400      79              1016.9F   1/ 4
CAPE CHARLES BUO 1326      79                N/A     1/ 7   2/ 7
OFFSHORE WE BUOY 1311      79                N/A     2/ 7   2/ 7
64NM E OF VA BCH 1350   79 79   CALM  /  2 1017.1F   2/ 7   2/ 7
DUCK PIER NC     1300   77 78  310/  6/  6 1017.0F
44100 DUCK FRF   1324      79                N/A     1/ 9
44056 DUCK FRF   1311      80                N/A     1/ 9
OREGON INLET NC  1300   78 81  360/  3/  5 1017.7F
HATTERAS NC      1300   79 81  340/  7/  8 1017.6S
DIAMOND SHLS NC  1350   80 84  350/  8/ 10 1017.6    2/10   2/10
CAPE LOOKOUT NC  1400   80     330/  4/  5 1017.5F
$$



USA.gov is the U.S. government's official web portal to all federal, state and local government web resources and services.